Wind_Speed
20 18 18 18 18 17 17 17 18 20 19 20 20 22 21 19 22 24 17 16 9 12 13 5 10 14 7 5 5 4 3 6 7 7 3 3 4 3 1 9 3 3 7 9 28
18 19 18 20 21 19 18 19 20 20 20 20 20 21 21 22 24 23 29 26 23 20 15 13 6 8 4 6 6 7 9 9 5 4 1 4 2 5 5 5 2 3 5 31 30
20 20 20 19 19 18 19 20 20 21 21 22 22 20 19 19 9 9 11 11 18 22 21 15 6 6 7 5 7 7 13 7 3 2 5 3 3 4 6 5 7 12 22 21 25
21 19 20 20 21 22 22 22 23 23 23 22 22 20 19 14 9 2 11 16 16 14 23 13 8 9 8 12 9 6 17 11 7 1 1 3 7 5 5 5 6 19 27 26 21
21 20 22 21 22 24 25 25 25 25 24 22 21 20 18 10 14 24 24 28 29 11 24 14 15 15 19 17 9 12 3 18 5 4 4 5 5 4 6 5 11 16 23 25 22
20 21 20 21 23 25 26 26 27 27 27 25 23 19 16 24 12 23 24 22 16 14 18 20 6 11 7 7 17 8 13 7 15 8 6 4 4 3 2 7 12 20 22 20 21
22 22 21 24 24 25 26 28 29 30 29 27 23 21 14 19 18 23 25 28 24 18 8 15 20 11 7 11 11 5 9 13 8 6 6 3 7 7 3 7 13 15 14 18 14
22 21 21 23 25 25 28 30 33 34 33 29 24 21 14 7 16 26 31 29 28 26 21 25 19 10 6 5 2 13 4 6 14 10 6 7 14 6 7 11 8 9 9 12 12
23 23 22 25 26 27 29 33 34 31 27 19 15 11 10 9 11 21 20 22 23 14 10 17 12 8 6 9 6 7 10 15 1 17 6 13 9 9 8 12 10 8 9 11 10
21 22 24 25 26 28 32 28 20 19 8 4 3 3 6 5 5 4 1 7 9 7 6 8 8 9 11 14 16 9 13 11 15 7 16 12 6 2 9 9 12 11 10 11 13
23 24 24 26 26 27 23 13 6 5 5 5 10 7 12 3 14 9 10 1 3 6 12 13 11 19 27 26 21 13 12 5 12 7 9 16 13 7 7 6 8 10 12 12 13
22 23 24 25 25 25 15 3 7 7 12 8 15 13 23 15 7 19 6 2 4 12 11 7 21 30 15 18 21 20 13 14 2 9 9 9 13 8 9 7 12 14 13 14 10
23 23 23 25 23 7 13 4 16 7 4 7 4 5 5 6 7 8 11 11 9 11 12 19 12 13 17 17 22 24 15 15 12 5 4 5 3 6 8 6 7 10 12 13 18
23 22 22 22 5 14 7 15 18 4 3 6 4 5 2 5 6 7 17 5 6 10 12 14 15 14 19 23 18 17 17 8 12 12 8 5 5 10 15 7 8 11 11 14 15
21 20 17 14 10 6 12 19 14 1 4 7 5 2 10 4 7 4 12 3 10 5 7 14 8 15 14 26 20 6 15 12 11 4 5 2 2 5 3 16 17 15 11 13 16
21 19 16 9 9 10 19 15 1 6 4 7 6 17 11 6 3 4 3 6 4 3 10 9 6 7 12 9 15 8 12 8 3 4 7 8 6 4 6 11 7 6 12 15 15
21 17 9 6 7 19 14 3 5 5 5 8 14 17 16 5 5 4 2 3 4 5 8 9 10 3 17 12 9 8 10 7 5 5 3 8 5 8 5 7 8 17 15 15 17
20 11 6 8 15 13 5 5 7 4 6 7 10 18 5 6 3 6 4 4 6 1 3 9 10 9 6 8 5 6 6 2 4 5 4 3 7 6 8 8 8 6 7 8 11
17 9 2 12 14 9 5 5 5 3 5 8 16 4 4 3 4 6 2 4 4 6 4 2 9 3 6 5 10 7 4 2 6 2 4 4 5 7 7 7 6 9 6 9 11
13 6 4 16 9 5 5 2 3 4 5 3 3 4 6 8 9 9 2 2 4 7 5 3 2 2 3 4 3 6 7 3 3 3 2 2 3 5 3 3 2 5 9 9 7
4 3 5 18 3 5 3 5 5 7 6 3 3 5 5 5 13 7 9 3 7 4 3 2 1 2 5 1 7 2 4 3 4 3 4 4 4 4 4 4 5 8 7 9 9
3 2 11 14 4 1 1 3 6 6 3 4 3 4 4 13 5 4 7 4 10 2 3 3 1 4 4 1 2 2 5 5 4 2 1 2 3 0 3 6 6 7 6 4 6
1 2 5 5 3 3 5 5 3 5 6 5 4 6 7 5 5 3 7 9 12 4 1 4 2 3 4 3 4 4 2 5 4 3 2 4 2 2 4 5 6 5 6 3 6
2 3 4 4 0 2 4 4 6 6 5 4 4 4 7 4 3 5 5 6 10 7 8 3 2 3 2 5 5 4 1 3 5 3 6 4 3 2 6 5 4 5 5 5 4
3 2 3 4 4 2 2 1 6 7 4 5 3 8 11 4 6 5 5 8 3 12 5 3 2 3 2 3 4 4 5 3 6 6 7 4 5 3 1 2 3 3 4 6 7
2 3 3 3 3 4 5 3 5 6 3 5 5 13 11 5 4 11 13 7 3 7 5 3 2 2 4 4 4 5 8 3 2 4 4 5 5 6 3 2 2 5 4 5 6
2 1 1 4 3 2 1 5 7 4 6 6 10 12 6 5 12 15 12 13 11 6 4 3 2 3 1 2 6 3 12 10 3 3 7 4 7 4 2 2 1 3 4 5 7
Wind_Direction
338 337 335 333 332 325 331 326 327 328 326 322 318 317 321 314 302 296 262 248 251 272 234 296 199 204 227 209 183 163 166 214 212 185 231 138 192 121 88 128 149 174 162 163 151
336 333 334 335 329 333 332 327 324 321 320 318 315 314 311 316 307 278 259 256 258 247 214 207 202 180 214 202 205 187 211 207 194 176 208 314 204 173 129 135 101 70 76 138 147
335 341 339 331 329 326 323 321 319 317 316 314 309 311 312 316 308 261 278 255 261 232 226 209 182 203 225 171 204 208 222 210 227 201 28 296 330 318 142 231 188 172 151 152 154
333 336 335 336 336 330 325 320 316 311 307 306 305 309 310 305 263 300 134 348 331 239 214 197 189 191 218 201 194 235 228 210 227 126 79 352 314 327 190 239 164 155 159 159 166
334 338 333 332 331 327 322 318 313 308 303 300 299 303 304 258 247 266 293 320 315 333 202 194 200 196 215 205 201 221 274 216 226 283 284 324 278 263 282 11 132 141 158 168 172
334 333 330 331 329 326 322 316 310 304 299 295 294 291 284 267 273 272 285 301 313 330 219 197 218 225 248 222 208 205 221 211 216 231 269 262 289 169 11 120 136 151 169 173 173
335 332 333 331 329 326 322 316 310 304 297 291 287 283 259 256 276 271 275 284 286 295 312 248 220 185 167 229 241 247 203 208 211 182 223 207 276 224 163 132 157 167 170 174 170
331 331 332 331 326 324 323 317 310 301 294 290 279 270 264 249 261 267 269 272 270 266 263 274 264 233 240 334 255 213 234 180 217 194 206 144 256 213 166 146 173 175 163 173 178
333 331 332 329 327 325 324 319 311 303 302 296 272 240 273 276 250 264 263 250 267 278 269 255 250 231 209 221 220 184 218 205 297 203 159 177 228 212 170 169 172 187 176 180 168
329 333 329 327 326 326 325 321 324 314 352 55 155 120 254 241 251 254 313 272 230 250 263 215 215 209 206 211 215 202 201 203 201 188 195 202 220 189 171 170 182 181 191 187 178
333 328 326 323 324 327 330 335 357 333 69 227 256 272 283 296 295 258 235 351 254 207 212 195 212 210 208 211 212 217 214 162 210 185 158 214 209 204 169 179 191 190 188 195 189
328 326 327 327 324 328 343 15 353 302 305 246 252 249 259 253 275 259 216 188 248 231 203 240 213 218 219 210 211 214 211 199 134 179 182 187 213 205 202 207 195 198 195 191 182
331 328 328 330 326 345 337 313 342 332 283 308 239 249 236 160 232 279 189 192 212 237 220 220 229 209 211 215 220 220 213 187 185 132 49 113 269 206 236 201 192 207 199 186 183
329 328 328 333 346 336 310 331 335 312 10 283 299 280 281 232 263 217 194 167 184 230 196 244 250 252 206 216 212 201 207 201 184 159 189 181 245 221 219 213 207 202 191 190 189
338 335 334 335 297 304 313 323 326 73 13 305 298 248 310 219 313 329 166 52 189 179 194 210 222 214 233 213 209 202 180 194 188 169 127 178 125 253 204 216 212 213 194 194 192
334 335 335 340 308 308 322 323 56 44 276 313 317 320 324 298 224 282 143 64 26 189 273 256 305 199 207 234 201 133 167 174 78 130 211 184 154 252 197 217 210 194 199 195 192
340 341 350 339 315 323 329 31 35 97 330 325 322 325 317 302 312 208 119 148 199 178 221 204 223 276 179 230 214 166 143 164 197 181 185 158 149 232 217 220 199 201 206 196 196
337 338 328 355 336 339 10 48 58 253 273 291 311 310 290 5 294 328 179 185 222 231 11 170 202 179 177 202 172 186 173 142 152 152 144 111 216 240 227 217 216 224 211 202 194
335 344 356 334 334 330 64 49 205 241 325 318 315 307 308 326 334 321 229 212 170 178 184 260 218 129 161 152 153 149 197 139 115 78 91 194 286 291 250 271 220 234 211 232 211
339 344 307 337 335 32 70 291 249 227 311 318 293 4 313 331 338 336 333 285 204 194 176 227 115 132 130 121 64 155 157 97 39 117 100 352 284 228 227 234 337 273 231 225 201
356 24 314 342 356 44 100 244 287 271 303 241 275 293 279 319 317 315 357 39 352 163 113 164 104 186 119 211 149 99 127 55 104 89 138 142 255 223 280 285 269 283 276 228 199
49 19 335 350 44 48 342 267 289 288 321 294 264 248 301 318 301 308 333 307 350 12 190 196 167 161 98 125 76 95 144 132 133 237 86 128 297 27 293 288 304 290 271 251 193
59 266 334 355 78 329 315 302 276 310 314 345 296 354 316 306 324 331 321 312 359 5 197 188 6 90 93 41 33 99 126 111 108 110 197 107 253 78 7 47 31 49 352 7 140
57 1 327 30 106 129 320 307 323 298 286 342 277 335 330 314 300 306 305 325 322 344 355 141 72 74 151 196 134 115 40 149 119 111 156 206 183 355 7 36 43 33 38 62 104
36 270 200 318 326 358 301 277 316 344 308 324 320 358 340 303 318 343 336 315 339 359 27 35 69 97 12 72 110 130 131 172 145 162 172 216 209 214 62 27 23 65 64 104 110
82 43 354 282 309 336 356 302 308 322 262 302 337 324 318 290 345 325 322 329 344 339 342 333 64 12 39 89 154 119 142 279 138 138 124 159 245 219 85 99 49 82 98 129 129
8 33 70 298 344 41 297 324 294 326 287 267 318 320 326 350 313 283 265 269 276 302 327 352 63 61 3 56 85 66 182 190 158 183 150 202 215 155 104 210 327 131 142 174 157
Height
800 797 794 791 789 785 782 780 778 776 773 771 768 766 763 760 755 753 749 745 744 743 745 746 746 747 749 749 747 750 763 763 751 749 743 732 737 733 734 743 746 749 751 748 759
800 797 794 791 787 784 781 779 776 774 772 769 767 764 761 758 753 743 739 739 740 743 743 743 746 747 746 745 745 745 749 747 738 736 737 734 735 734 738 743 748 750 748 751 758
798 795 792 789 786 782 779 776 773 771 769 767 764 762 760 756 751 730 726 733 734 737 740 741 742 747 744 741 739 737 736 736 734 731 733 735 734 734 740 745 738 743 748 753 757
797 793 790 787 784 781 777 774 771 768 765 763 761 760 757 756 755 726 727 729 732 731 736 738 740 744 738 735 734 739 732 732 733 732 733 740 738 738 735 731 726 733 737 747 755
795 792 789 785 782 779 775 771 767 764 760 759 758 757 756 749 737 730 728 729 726 727 729 732 733 733 733 727 730 735 731 732 732 732 734 735 740 737 735 732 730 738 745 747 754
793 791 787 783 780 776 772 768 763 759 756 753 753 754 752 742 736 733 731 730 731 729 727 729 729 727 728 726 729 724 731 729 730 736 736 738 739 736 733 735 737 738 745 749 752
791 788 785 782 777 773 769 763 758 753 749 747 748 748 743 735 732 729 729 729 730 731 730 727 725 727 726 725 723 724 731 733 729 734 739 736 743 741 733 737 739 743 745 750 754
790 787 783 779 775 770 765 759 752 746 741 740 740 741 733 730 728 726 724 723 725 727 729 726 727 727 726 725 721 729 732 739 727 730 732 739 743 736 735 739 746 746 750 752 754
788 785 780 776 772 767 761 755 746 739 734 732 733 737 730 725 723 718 720 721 723 724 724 724 726 726 725 726 731 727 730 730 730 721 729 736 741 734 734 735 743 748 748 752 756
785 782 778 773 768 763 758 751 742 735 732 731 732 737 726 722 719 717 716 717 719 719 722 721 722 720 722 724 716 720 726 725 729 725 724 731 736 725 731 735 738 744 747 751 754
782 779 775 770 765 760 754 748 746 740 736 737 732 728 719 720 718 715 714 714 717 716 715 712 717 709 702 700 702 711 717 721 718 717 725 726 729 728 730 735 740 743 744 747 749
780 776 772 767 763 759 756 755 755 755 736 727 724 725 718 717 717 704 712 715 718 714 711 714 704 687 702 706 708 709 710 717 716 713 720 725 727 727 725 730 730 735 741 742 748
776 772 769 764 760 758 756 755 752 750 747 727 722 719 713 715 711 702 703 705 714 713 712 705 689 697 701 701 706 710 709 710 709 717 725 727 733 730 721 724 728 730 731 737 740
774 769 765 762 759 757 754 752 750 748 760 734 719 713 710 709 706 696 695 700 711 708 714 709 699 700 697 697 698 701 718 710 706 714 730 726 738 725 717 726 726 725 730 732 735
770 766 763 760 760 758 754 749 747 748 802 724 717 710 708 709 701 692 692 699 703 702 704 695 694 704 700 685 694 698 701 711 712 719 724 733 741 724 724 717 717 717 723 725 729
769 764 762 760 759 756 752 748 747 780 801 733 720 716 710 701 702 701 697 700 706 707 708 704 692 684 698 692 688 696 702 711 718 729 725 727 729 726 722 707 709 711 715 719 724
768 763 761 760 759 754 750 748 778 791 743 733 725 714 711 705 699 701 699 700 702 705 702 697 694 689 684 698 698 696 704 713 715 713 713 727 732 708 703 706 700 700 704 708 713
767 763 760 760 757 753 750 766 795 764 749 733 727 717 711 703 698 700 699 699 697 695 694 688 704 692 681 690 691 704 704 694 696 710 731 729 723 706 694 693 697 698 699 704 707
765 762 762 761 756 753 760 793 785 758 743 740 730 722 720 703 708 703 694 688 689 696 695 682 678 681 680 679 690 701 702 696 710 723 723 733 719 700 694 693 696 697 703 703 702
767 764 762 760 756 755 774 775 767 753 744 743 741 732 726 718 715 705 695 690 683 688 688 696 680 679 682 679 685 689 698 699 715 721 716 724 719 707 689 688 693 698 703 699 699
766 769 762 759 757 765 791 792 762 747 744 744 745 735 731 727 711 707 697 692 690 687 687 692 691 689 683 693 691 693 700 713 708 727 722 727 714 704 696 697 699 699 702 699 698
770 783 763 759 774 795 792 767 756 749 742 739 736 735 728 722 722 714 703 696 690 689 685 688 694 677 697 695 695 691 696 708 718 736 763 740 711 697 702 704 701 700 696 693 696
779 777 765 761 792 793 772 767 760 752 747 743 741 732 730 724 726 712 708 696 694 694 686 687 691 687 697 697 697 696 695 716 722 720 718 719 709 700 702 702 702 700 699 698 696
782 791 778 774 778 780 774 771 766 751 747 743 742 735 735 730 722 721 712 703 697 692 682 684 699 698 703 706 714 716 725 701 706 728 730 716 699 697 701 700 701 702 703 704 702
785 793 786 788 785 785 778 774 766 760 749 744 741 740 740 735 734 723 714 708 698 698 692 698 700 698 692 691 693 708 719 725 711 710 706 704 704 700 697 697 699 701 705 706 709
792 793 788 791 781 772 782 787 770 762 761 750 750 744 739 733 730 729 725 714 710 705 703 704 702 691 698 695 690 698 705 716 708 708 706 706 707 697 700 700 698 704 706 708 712
784 785 786 790 795 789 782 775 775 773 759 751 747 745 738 732 733 728 725 720 717 711 707 707 708 715 717 696 696 708 700 704 707 706 705 712 702 695 696 696 697 701 705 709 712